EN

Hourly Weather Kytsivka

Today, 25 July, Sunday

Time Temperature Precipitation Wind Pressure Humidity
00:00 +20°C° 0 mm 2 mps 753 mmHg 67%
01:00 +19°C° 0 mm 2 mps 753 mmHg 69%
02:00 +19°C° 0 mm 2 mps 753 mmHg 71%
03:00 +19°C° 0 mm 2 mps 753 mmHg 71%
04:00 +19°C° 0 mm 2 mps 754 mmHg 71%
05:00 +19°C° 0 mm 2 mps 754 mmHg 72%
06:00 +21°C° 0 mm 2 mps 754 mmHg 64%
07:00 +24°C° 0 mm 3 mps 754 mmHg 57%
08:00 +26°C° 0 mm 3 mps 754 mmHg 49%
09:00 +27°C° 0 mm 3 mps 755 mmHg 45%
10:00 +28°C° 0 mm 3 mps 755 mmHg 40%
11:00 +30°C° 0 mm 3 mps 755 mmHg 35%
12:00 +30°C° 0 mm 3 mps 755 mmHg 33%
13:00 +30°C° 0 mm 3 mps 755 mmHg 31%
14:00 +30°C° 0 mm 3 mps 755 mmHg 30%
15:00 +30°C° 0 mm 4 mps 755 mmHg 30%
16:00 +30°C° 0 mm 4 mps 755 mmHg 31%
17:00 +29°C° 0 mm 4 mps 755 mmHg 31%
18:00 +27°C° 0 mm 4 mps 755 mmHg 37%
19:00 +25°C° 0 mm 3 mps 755 mmHg 44%
20:00 +22°C° 0 mm 3 mps 756 mmHg 50%
21:00 +21°C° 0 mm 3 mps 756 mmHg 52%
22:00 +20°C° 0 mm 3 mps 756 mmHg 54%
23:00 +20°C° 0 mm 3 mps 756 mmHg 56%

Tomorrow, 26 July, Monday

Time Temperature Precipitation Wind Pressure Humidity
00:00 +19°C° 0 mm 3 mps 756 mmHg 57%
01:00 +19°C° 0 mm 3 mps 756 mmHg 59%
02:00 +18°C° 0 mm 3 mps 756 mmHg 61%
03:00 +18°C° 0 mm 3 mps 756 mmHg 61%
04:00 +18°C° 0 mm 2 mps 757 mmHg 62%
05:00 +18°C° 0 mm 2 mps 757 mmHg 63%
06:00 +21°C° 0 mm 3 mps 757 mmHg 57%
07:00 +24°C° 0 mm 3 mps 757 mmHg 50%
08:00 +27°C° 0 mm 3 mps 757 mmHg 44%
09:00 +28°C° 0 mm 3 mps 757 mmHg 40%
10:00 +30°C° 0 mm 3 mps 757 mmHg 37%
11:00 +31°C° 0 mm 3 mps 757 mmHg 33%
12:00 +33°C° 0 mm 3 mps 756 mmHg 32%
13:00 +33°C° 0 mm 3 mps 756 mmHg 30%
14:00 +34°C° 0 mm 3 mps 756 mmHg 29%
15:00 +33°C° 0 mm 4 mps 756 mmHg 30%
16:00 +33°C° 0 mm 4 mps 756 mmHg 30%
17:00 +33°C° 0 mm 4 mps 756 mmHg 31%
18:00 +29°C° 0 mm 4 mps 756 mmHg 38%
19:00 +27°C° 0 mm 4 mps 756 mmHg 44%
20:00 +25°C° 0 mm 3 mps 756 mmHg 50%
21:00 +24°C° 0 mm 3 mps 756 mmHg 52%
22:00 +22°C° 0 mm 3 mps 756 mmHg 54%
23:00 +21°C° 0 mm 3 mps 757 mmHg 56%

Day after tomorrow, 27 July, Tuesday

Time Temperature Precipitation Wind Pressure Humidity
00:00 +21°C° 0 mm 3 mps 756 mmHg 57%
01:00 +20°C° 0 mm 3 mps 756 mmHg 57%
02:00 +20°C° 0 mm 3 mps 756 mmHg 58%
03:00 +20°C° 0 mm 3 mps 756 mmHg 58%
04:00 +20°C° 0 mm 2 mps 757 mmHg 58%
05:00 +20°C° 0 mm 2 mps 757 mmHg 57%
06:00 +23°C° 0 mm 2 mps 757 mmHg 51%
07:00 +26°C° 0 mm 2 mps 757 mmHg 45%
08:00 +28°C° 0 mm 2 mps 757 mmHg 38%
09:00 +30°C° 0 mm 2 mps 756 mmHg 35%
10:00 +31°C° 0 mm 2 mps 756 mmHg 33%
11:00 +34°C° 0 mm 2 mps 756 mmHg 30%
12:00 +34°C° 0 mm 2 mps 756 mmHg 28%
13:00 +34°C° 0 mm 2 mps 755 mmHg 27%
14:00 +34°C° 0 mm 2 mps 755 mmHg 26%
15:00 +32°C° 0 mm 2 mps 755 mmHg 30%
16:00 +31°C° 0 mm 2 mps 755 mmHg 34%
17:00 +30°C° 0 mm 2 mps 755 mmHg 37%
18:00 +29°C° 0 mm 2 mps 755 mmHg 40%
19:00 +28°C° 0 mm 2 mps 755 mmHg 43%
20:00 +27°C° 0 mm 1 mps 755 mmHg 45%
21:00 +26°C° 0 mm 1 mps 755 mmHg 49%
22:00 +25°C° 0 mm 1 mps 755 mmHg 53%
23:00 +24°C° 0 mm 1 mps 755 mmHg 56%

28 July, Wednesday

Time Temperature Precipitation Wind Pressure Humidity
00:00 +23°C° 0 mm 1 mps 755 mmHg 58%
01:00 +23°C° 0 mm 1 mps 755 mmHg 61%
02:00 +22°C° 0 mm 1 mps 755 mmHg 63%
03:00 +22°C° 0 mm 1 mps 755 mmHg 64%
04:00 +22°C° 0 mm 1 mps 755 mmHg 65%
05:00 +21°C° 0 mm 2 mps 755 mmHg 66%
06:00 +25°C° 0 mm 2 mps 755 mmHg 58%
07:00 +27°C° 0 mm 2 mps 754 mmHg 50%
08:00 +30°C° 0 mm 3 mps 754 mmHg 42%
09:00 +31°C° 0 mm 3 mps 754 mmHg 38%
10:00 +34°C° 0 mm 4 mps 754 mmHg 34%
11:00 +35°C° 0 mm 4 mps 753 mmHg 30%
12:00 +35°C° 0 mm 5 mps 753 mmHg 30%
13:00 +35°C° 0 mm 5 mps 753 mmHg 30%
14:00 +35°C° 0 mm 5 mps 752 mmHg 29%
15:00 +34°C° 0 mm 5 mps 752 mmHg 32%
16:00 +33°C° 0 mm 5 mps 752 mmHg 35%
17:00 +33°C° 0 mm 5 mps 752 mmHg 38%
18:00 +29°C° 0.1 mm 4 mps 751 mmHg 47%
19:00 +27°C° 0.1 mm 3 mps 751 mmHg 55%
20:00 +25°C° 0.1 mm 3 mps 751 mmHg 64%
21:00 +22°C° 0.2 mm 3 mps 751 mmHg 71%
22:00 +21°C° 0.2 mm 2 mps 751 mmHg 77%
23:00 +20°C° 0.2 mm 2 mps 751 mmHg 83%

29 July, Thursday

Time Temperature Precipitation Wind Pressure Humidity
00:00 +20°C° 0 mm 2 mps 751 mmHg 84%
01:00 +20°C° 0 mm 2 mps 751 mmHg 85%
02:00 +20°C° 0 mm 2 mps 751 mmHg 86%
03:00 +20°C° 0 mm 2 mps 751 mmHg 86%
04:00 +20°C° 0 mm 2 mps 751 mmHg 86%
05:00 +20°C° 0 mm 2 mps 751 mmHg 87%
06:00 +23°C° 0 mm 2 mps 751 mmHg 77%
07:00 +26°C° 0 mm 2 mps 751 mmHg 68%
08:00 +28°C° 0 mm 2 mps 751 mmHg 58%
09:00 +30°C° 0 mm 2 mps 751 mmHg 51%
10:00 +31°C° 0 mm 3 mps 750 mmHg 43%
11:00 +34°C° 0 mm 3 mps 750 mmHg 36%
12:00 +34°C° 0 mm 3 mps 750 mmHg 35%
13:00 +34°C° 0 mm 4 mps 750 mmHg 35%
14:00 +34°C° 0 mm 4 mps 750 mmHg 35%
15:00 +34°C° 0 mm 4 mps 750 mmHg 35%
16:00 +34°C° 0 mm 4 mps 749 mmHg 36%
17:00 +34°C° 0 mm 4 mps 749 mmHg 36%
18:00 +31°C° 0 mm 3 mps 750 mmHg 42%
19:00 +29°C° 0 mm 3 mps 750 mmHg 48%
20:00 +27°C° 0 mm 2 mps 750 mmHg 54%
21:00 +26°C° 0 mm 2 mps 750 mmHg 56%
22:00 +25°C° 0 mm 2 mps 750 mmHg 58%
23:00 +24°C° 0 mm 1 mps 750 mmHg 61%

30 July, Friday

Time Temperature Precipitation Wind Pressure Humidity
00:00 +24°C° 0 mm 1 mps 750 mmHg 63%
01:00 +23°C° 0 mm 2 mps 750 mmHg 65%
02:00 +23°C° 0 mm 2 mps 750 mmHg 67%
03:00 +23°C° 0 mm 1 mps 750 mmHg 67%
04:00 +23°C° 0 mm 1 mps 750 mmHg 68%
05:00 +23°C° 0 mm 1 mps 751 mmHg 69%
06:00 +25°C° 0 mm 1 mps 751 mmHg 61%
07:00 +28°C° 0 mm 1 mps 751 mmHg 53%
08:00 +30°C° 0 mm 1 mps 751 mmHg 44%
09:00 +31°C° 0 mm 1 mps 751 mmHg 40%
10:00 +33°C° 0 mm 1 mps 751 mmHg 35%
11:00 +34°C° 0 mm 1 mps 751 mmHg 31%
12:00 +34°C° 0 mm 1 mps 750 mmHg 30%
13:00 +34°C° 0 mm 1 mps 750 mmHg 29%
14:00 +35°C° 0 mm 1 mps 750 mmHg 28%
15:00 +35°C° 0 mm 2 mps 750 mmHg 30%
16:00 +35°C° 0 mm 2 mps 750 mmHg 32%
17:00 +34°C° 0 mm 2 mps 750 mmHg 34%
18:00 +31°C° 0 mm 2 mps 750 mmHg 39%
19:00 +30°C° 0 mm 1 mps 750 mmHg 43%
20:00 +28°C° 0 mm 1 mps 750 mmHg 47%
21:00 +28°C° 0 mm 2 mps 750 mmHg 49%
22:00 +27°C° 0 mm 2 mps 750 mmHg 51%
23:00 +26°C° 0 mm 3 mps 750 mmHg 54%
Show more